GFSNGP_sfc_30mbdewp_000.txt.gz
Dewpoint
31 30 30 30 29 29 29 30 29 29 27 28 28 28 29 30 30 30 29 34 35 32 27 22 21 20 19 20 23 23 21 20 19 23 23 21 20 20 20 17 15 15 15 15
31 31 31 30 30 30 30 29 29 29 30 31 30 29 28 29 30 28 32 35 33 30 23 19 18 18 23 23 27 24 21 19 21 23 21 19 19 18 15 12 12 13 14 15
29 30 31 29 31 30 28 29 30 28 29 29 27 28 28 29 30 34 35 34 38 27 20 17 18 26 27 29 26 23 20 20 21 20 19 18 17 13 11 11 12 13 15 18
30 31 24 24 25 25 25 27 27 27 29 28 27 29 35 36 35 36 32 37 36 26 19 21 28 28 30 24 21 20 19 20 19 19 17 16 13 10 10 11 12 15 18 20
29 28 26 25 25 26 26 26 26 26 28 29 33 36 37 35 35 32 35 36 30 28 28 31 33 35 28 21 18 18 19 19 18 18 17 13 10 9 11 13 15 18 19 20
32 27 22 25 27 26 25 24 28 28 33 36 36 34 35 36 38 39 39 38 33 36 38 38 36 30 20 18 16 18 18 18 18 17 13 10 9 10 12 14 17 20 21 21
29 27 29 29 27 28 26 28 33 35 35 36 35 36 38 39 39 38 37 37 36 35 34 33 29 20 19 16 17 18 19 18 17 14 11 9 9 11 12 17 21 23 23 24
31 28 25 29 26 26 30 36 35 36 37 37 38 40 38 38 38 37 38 35 36 34 31 29 30 23 18 15 17 18 18 17 15 13 11 8 10 12 16 19 21 21 22 23
30 28 30 32 32 35 37 36 36 37 38 38 41 39 39 38 38 37 35 36 33 31 30 29 21 18 16 18 18 18 17 16 15 13 9 9 11 15 17 17 18 20 21 22
35 34 33 34 36 37 37 37 37 39 41 43 40 39 37 38 36 36 35 36 31 29 24 19 18 19 17 19 19 17 17 17 15 10 10 11 14 15 17 17 19 19 20 23
36 38 35 36 35 36 38 38 39 39 41 41 40 38 38 35 36 34 36 33 28 24 20 17 19 18 19 19 19 18 18 17 12 10 13 14 15 17 18 18 20 21 22 23
33 35 36 37 36 35 36 37 39 41 40 41 39 37 35 35 34 34 35 30 27 21 18 18 18 19 20 19 19 19 18 16 13 15 15 15 16 17 18 18 19 20 22 24
35 36 36 35 36 36 38 39 39 39 40 38 37 35 34 33 34 35 33 27 21 18 19 19 20 20 20 23 22 20 20 17 14 15 15 15 17 17 17 18 18 21 23 23
35 36 36 35 36 38 38 33 31 33 37 36 35 35 35 34 33 31 27 21 20 19 20 21 21 21 22 23 23 20 18 16 17 16 16 17 18 18 18 18 18 18 21 23
32 34 36 36 35 27 25 25 26 29 34 35 35 34 35 33 29 25 22 23 24 24 23 22 23 23 23 22 21 19 13 14 17 17 17 18 18 18 17 17 17 18 19 19
34 34 31 23 22 24 25 27 29 31 34 34 34 33 32 28 22 22 23 24 24 24 25 23 24 25 23 22 20 15 12 15 15 16 17 16 16 17 17 17 17 18 18 18
27 23 23 25 24 26 30 33 35 34 34 33 32 33 26 24 24 23 23 24 24 25 25 25 26 23 23 21 18 12 14 14 16 16 16 16 15 15 17 17 17 18 18 18
23 24 25 27 29 30 32 34 33 33 31 27 26 24 23 23 23 23 25 24 24 25 27 26 23 23 21 18 15 16 16 16 16 16 15 16 15 15 17 17 16 17 18 18
23 25 27 30 33 34 34 33 31 28 27 27 25 23 23 23 23 24 25 25 26 26 27 25 24 23 21 16 17 17 18 17 16 15 16 15 15 15 15 17 17 16 17 17
24 26 30 31 32 32 32 30 28 26 24 23 22 23 23 23 21 22 25 25 26 27 27 27 25 25 21 17 18 15 18 17 15 15 15 15 15 15 15 14 16 16 16 16
24 27 30 30 30 26 25 23 22 22 23 23 23 24 22 23 24 23 24 25 29 26 27 26 25 24 20 18 17 20 19 17 16 15 15 15 14 14 14 14 14 15 15 15
25 27 28 28 25 22 21 24 25 24 23 23 23 22 23 25 26 26 25 25 27 25 26 27 26 24 21 18 18 19 18 16 16 15 14 14 14 13 13 13 13 13 14 14
25 26 27 25 23 23 25 25 25 26 26 26 26 26 26 26 25 25 25 28 27 28 27 29 28 22 20 22 22 20 18 16 16 15 14 14 13 13 12 12 13 13 12 11
25 27 29 24 24 22 21 25 25 26 27 27 27 27 26 26 26 27 27 27 27 27 27 29 25 21 19 23 21 19 18 17 16 16 15 13 14 13 12 12 12 12 12 11
30 29 24 23 21 19 24 25 27 28 27 27 28 27 27 28 27 27 28 27 27 28 29 26 22 20 22 22 21 19 18 18 17 16 15 14 13 13 13 12 12 12 11 10
29 27 25 22 22 22 23 26 27 27 26 27 28 29 30 30 29 28 27 27 27 27 27 26 23 21 23 22 21 19 18 17 16 15 15 14 13 13 13 12 11 11 10 9
29 29 26 23 24 25 27 28 29 27 26 26 26 29 27 28 28 28 27 26 26 27 28 26 25 22 23 22 20 19 18 17 16 16 15 15 14 13 13 12 11 11 11 11

GFSNGP_sfc_30mbdewp_003.txt.gz
Dewpoint
31 30 29 28 28 28 26 28 28 29 27 27 28 27 28 29 30 30 31 32 33 35 37 39 31 25 25 23 23 23 24 26 28 25 24 24 23 22 21 20 19 17 15 16
32 31 30 29 28 27 27 27 27 27 27 28 28 29 28 30 31 33 33 32 34 37 39 38 28 24 23 21 24 27 29 29 25 24 23 22 21 21 19 17 14 15 15 16
29 30 32 29 31 30 29 27 26 25 27 26 26 28 30 33 34 34 35 36 36 39 39 35 28 23 22 26 30 36 28 26 24 22 21 21 20 18 15 14 14 15 15 15
30 32 24 24 26 25 25 25 26 26 25 28 31 33 35 36 35 40 39 36 39 39 38 32 29 27 30 36 32 29 28 24 20 20 20 20 18 15 13 14 14 15 16 17
30 28 27 28 25 26 26 26 26 27 30 32 35 36 38 38 40 40 38 40 38 38 37 34 35 37 39 37 30 25 20 19 19 19 20 17 14 14 14 14 15 15 17 20
33 28 24 24 27 28 28 24 32 33 33 36 38 35 37 40 40 40 39 38 36 37 36 38 38 38 34 28 22 20 19 19 19 19 17 14 14 14 14 14 14 19 21 22
30 29 28 29 29 29 25 27 35 36 35 36 35 37 39 41 39 38 37 36 37 36 36 35 35 31 24 23 23 18 19 20 19 17 15 15 14 13 13 15 20 24 25 24
32 29 27 29 29 32 36 37 36 37 37 38 39 40 41 39 37 36 35 36 36 37 34 32 32 29 23 19 17 18 19 19 17 16 17 14 12 12 14 17 20 22 23 23
31 30 31 34 33 35 35 35 38 39 37 40 40 39 40 38 36 34 36 37 37 35 34 32 25 21 17 19 17 19 19 18 17 18 17 13 11 14 15 15 20 21 22 21
35 34 33 33 36 38 38 39 36 37 37 37 38 40 40 38 35 35 37 36 37 34 30 24 21 18 17 19 20 18 18 18 19 18 14 13 14 14 14 18 20 19 20 21
36 36 35 37 38 35 37 36 35 37 37 38 39 38 40 37 34 36 35 37 34 30 26 21 19 19 19 19 20 19 19 20 19 17 15 15 16 15 16 20 22 20 21 23
34 38 38 36 33 33 34 37 37 35 30 29 32 36 37 35 35 35 36 36 32 25 21 19 18 18 19 20 19 21 21 22 21 16 16 17 15 15 18 20 21 20 24 25
39 40 38 34 33 34 36 35 27 25 25 25 32 36 35 35 35 34 32 31 25 21 20 19 19 20 21 26 26 25 24 22 18 17 17 16 16 16 19 21 20 21 25 24
35 36 31 33 34 35 29 25 25 24 25 33 36 36 36 33 32 31 30 24 21 20 20 21 21 20 23 24 26 25 24 20 17 18 18 18 17 18 20 19 20 20 22 24
26 30 34 34 31 25 24 23 25 27 31 35 35 35 35 31 29 26 24 24 24 24 22 22 24 23 24 24 24 24 19 17 19 18 19 18 18 17 17 19 18 20 20 19
33 32 28 25 25 23 23 24 29 32 35 35 35 35 33 31 26 23 24 26 25 24 26 25 26 26 26 24 23 21 17 17 17 17 18 16 16 15 16 18 18 20 19 18
26 25 25 24 24 24 25 29 33 34 34 34 34 32 29 27 26 26 24 27 27 27 28 28 28 25 25 24 22 19 18 17 18 18 17 16 15 15 16 18 18 19 20 20
24 24 24 24 24 26 29 31 34 34 32 30 28 27 26 25 25 26 28 27 27 28 29 29 27 25 25 23 20 20 19 19 18 17 16 16 15 15 17 19 19 19 19 20
25 25 24 24 26 32 33 32 34 32 29 28 26 25 25 25 26 26 26 27 27 28 29 29 27 25 26 23 19 21 21 20 19 17 17 16 16 16 17 16 18 19 19 18
26 27 27 26 30 33 34 35 31 30 27 25 25 27 27 28 25 24 27 27 27 28 31 30 28 26 26 23 20 20 20 19 18 17 17 15 16 16 17 17 16 18 17 17
28 29 28 29 32 32 29 28 24 25 25 25 25 27 25 27 27 27 27 26 31 30 29 28 27 25 24 22 21 23 21 19 18 17 17 16 16 16 16 16 16 16 16 16
29 30 28 29 31 30 27 26 28 26 25 26 26 25 26 29 28 27 27 28 29 30 28 28 29 30 27 22 23 23 21 19 17 17 17 16 15 15 15 14 16 14 15 15
30 30 29 31 29 31 30 28 27 28 28 29 28 28 28 26 26 25 24 28 26 27 27 28 30 28 25 25 26 24 22 19 18 17 16 15 15 15 14 13 14 15 13 13
31 32 30 30 31 29 25 27 28 29 29 29 29 29 28 26 27 27 27 27 29 29 29 30 29 25 23 26 25 24 23 21 19 18 16 13 15 14 14 13 12 13 13 12
34 34 32 30 28 23 25 27 28 29 29 30 30 30 29 28 28 28 28 29 28 28 28 27 24 23 24 24 24 24 22 21 20 19 17 16 14 14 14 13 13 13 11 10
33 32 31 30 28 20 21 25 26 28 29 29 29 30 30 29 27 29 29 29 29 28 28 27 26 24 25 24 24 23 22 22 18 16 17 15 14 14 14 13 11 11 10 10
32 31 30 29 24 24 26 28 30 30 29 28 27 29 28 28 27 28 29 28 27 28 28 28 27 25 25 25 24 23 22 22 20 18 17 16 15 14 14 13 12 11 11 10

GFSNGP_sfc_30mbdewp_006.txt.gz
Dewpoint
32 31 31 31 30 29 28 27 26 27 26 26 27 27 30 32 33 34 33 35 38 38 36 38 39 39 32 29 26 26 24 23 26 32 31 31 27 27 26 26 25 24 21 20
33 33 31 29 31 30 28 27 27 27 26 27 27 30 32 33 34 35 37 39 39 37 37 38 38 38 29 26 25 25 27 35 38 35 29 26 26 25 24 24 22 20 20 20
30 31 31 29 29 29 29 27 26 25 26 27 27 33 35 36 36 39 39 39 39 39 39 38 37 33 30 31 37 38 38 36 34 33 26 24 24 23 23 21 20 20 20 20
31 31 24 25 28 27 27 28 28 26 26 28 32 37 37 38 39 39 40 39 39 39 38 38 35 35 39 40 37 35 35 35 33 24 22 22 23 22 19 19 19 19 20 20
30 29 28 29 28 27 27 28 28 31 34 36 38 39 38 39 42 42 40 39 38 37 37 36 37 39 39 40 39 37 31 24 21 21 21 22 20 18 19 19 18 19 20 22
33 28 24 26 28 29 30 27 37 37 37 39 38 36 38 40 41 40 39 38 35 37 37 37 38 38 36 35 33 24 23 21 20 21 20 18 18 18 18 18 17 21 21 24
31 29 29 31 30 33 29 33 39 40 40 39 38 40 41 40 40 40 38 34 36 36 36 37 35 35 30 24 24 23 20 19 20 20 17 18 18 18 16 17 20 21 25 24
32 29 26 31 33 34 35 39 39 41 40 40 39 39 39 39 39 38 35 35 36 36 36 35 34 35 27 20 18 19 20 20 20 19 19 19 18 16 17 18 20 22 22 23
30 29 31 33 34 37 38 39 40 40 38 38 37 37 38 39 37 38 36 36 36 36 35 35 32 22 20 20 18 19 19 20 20 21 21 18 16 17 18 18 20 21 23 20
33 32 33 35 37 38 39 39 40 40 39 38 34 31 31 35 38 35 35 35 36 36 33 29 25 19 20 20 21 20 20 21 21 21 20 18 18 18 18 19 21 23 20 21
34 35 35 37 38 38 39 39 40 39 38 28 27 26 28 36 35 35 35 35 36 32 31 25 20 19 19 20 21 20 22 22 23 23 20 18 19 18 18 21 22 21 22 24
33 35 38 37 38 38 37 40 38 30 26 26 27 33 35 35 34 34 34 35 33 31 23 21 19 19 19 22 24 25 24 24 24 22 20 20 19 19 20 21 22 22 22 26
35 35 35 36 35 37 38 36 27 24 26 33 35 34 34 34 33 32 32 36 32 22 21 21 21 21 26 27 27 26 25 24 22 20 20 20 20 18 19 21 21 22 23 24
34 34 35 34 35 35 29 25 25 28 31 32 33 34 34 34 35 35 33 24 22 23 22 23 22 23 25 25 26 25 24 24 23 21 21 21 20 20 20 20 20 20 22 21
32 33 31 28 27 25 24 25 26 29 32 32 34 35 35 35 35 28 25 25 26 25 26 24 23 24 26 26 24 24 24 22 20 20 21 20 20 19 19 19 20 20 21 19
31 27 26 25 24 24 24 25 28 31 33 33 33 33 33 31 29 26 24 25 23 24 26 25 26 27 26 25 25 24 22 18 18 20 21 20 19 18 18 19 20 21 20 19
25 25 24 24 24 24 24 26 32 32 32 32 31 28 26 26 26 28 27 28 27 26 27 28 28 28 26 25 23 22 23 22 20 21 20 20 19 17 19 19 20 20 20 21
23 22 23 24 24 25 27 32 33 33 33 30 28 27 26 25 25 26 28 27 27 27 28 29 29 27 26 25 23 23 23 22 22 21 20 20 19 20 19 18 19 20 20 20
23 21 20 21 26 29 31 34 33 33 32 29 25 22 24 26 27 26 26 26 26 26 29 30 29 26 26 25 21 22 24 23 22 21 21 18 19 18 18 19 18 20 19 18
22 21 24 27 30 30 30 34 33 32 31 26 25 25 28 29 27 25 26 26 28 29 30 28 28 27 26 25 22 21 25 23 22 20 20 20 19 17 18 17 18 18 18 18
27 30 31 31 31 31 32 32 29 24 28 25 23 24 24 26 28 28 26 25 30 30 29 29 29 29 29 27 22 24 24 23 22 21 20 19 18 17 18 17 18 17 17 17
27 28 31 32 32 31 32 29 27 27 25 26 26 26 28 28 27 26 26 26 25 27 27 26 27 30 30 27 27 26 25 24 22 20 20 19 17 17 16 16 17 17 16 16
27 30 31 32 32 32 32 32 30 28 27 28 28 28 28 27 26 25 24 27 25 26 25 26 29 29 27 26 26 26 25 24 22 20 19 19 18 15 16 15 15 15 14 15
29 31 32 34 34 32 30 31 28 29 29 29 29 29 28 28 27 29 28 26 26 27 27 29 28 27 24 25 25 25 25 24 23 21 20 14 16 16 16 15 14 15 14 13
30 33 33 33 32 31 31 28 29 29 29 30 30 30 29 28 26 27 27 27 28 28 28 29 26 24 24 24 26 26 25 24 24 23 20 19 16 15 16 16 15 13 13 12
31 31 31 33 32 32 29 26 27 29 30 30 31 30 29 30 27 27 29 29 29 27 27 29 29 27 26 26 26 26 25 24 22 20 18 18 16 15 15 14 13 13 13 12
30 31 32 31 31 31 27 28 30 30 30 30 28 28 28 28 26 26 27 27 26 24 28 29 29 28 27 26 27 26 25 24 23 22 22 18 17 16 16 14 14 13 12 12

GFSNGP_sfc_30mbdewp_009.txt.gz
Dewpoint
33 33 32 30 30 30 30 29 28 28 28 28 28 33 35 36 37 36 39 39 39 39 38 38 39 39 37 28 31 28 26 29 34 34 32 31 31 29 29 27 26 26 26 23
33 34 34 31 31 31 30 30 29 29 27 29 31 38 38 37 38 39 39 39 39 40 39 39 39 37 32 35 37 38 37 36 36 35 34 32 28 27 26 24 25 22 21 22
30 33 32 29 26 28 29 28 28 27 31 37 36 37 38 38 39 39 39 40 39 40 39 38 38 34 35 38 38 38 37 36 37 37 36 35 30 25 24 24 21 20 20 20
32 31 25 26 29 27 28 29 31 36 37 37 39 40 39 39 40 40 39 41 40 39 38 37 36 37 39 40 40 37 37 36 36 36 34 24 23 23 21 20 19 18 19 21
30 28 28 29 29 29 28 28 38 36 38 38 40 40 37 39 41 40 40 41 39 39 37 37 37 38 38 38 39 39 36 35 31 23 22 22 21 19 18 18 17 19 21 20
30 26 22 25 30 37 35 29 38 39 40 39 40 34 35 40 41 41 41 39 38 36 36 36 36 38 37 35 35 36 23 21 22 21 21 19 18 18 18 18 17 20 20 24
28 27 28 30 30 37 27 30 39 39 39 40 38 38 40 40 39 40 39 38 36 36 36 36 35 35 33 28 22 21 21 21 21 20 19 20 20 19 16 17 19 20 21 21
30 28 24 33 31 29 32 37 35 38 40 38 40 40 38 36 37 39 38 36 36 35 36 35 35 34 31 18 20 21 21 21 21 21 21 20 17 17 18 19 19 19 21 21
29 27 32 33 32 34 35 36 39 39 40 39 38 37 29 28 36 37 36 35 35 36 36 35 32 21 21 21 21 22 21 22 22 22 22 19 18 18 19 19 20 20 21 20
31 32 32 34 35 36 37 39 41 41 40 36 36 31 33 35 35 35 35 34 35 36 33 32 29 21 20 22 22 21 22 22 23 23 21 19 19 20 19 19 19 19 20 21
34 34 34 35 35 37 40 42 41 37 36 32 35 35 34 32 33 34 33 33 36 35 33 30 21 20 20 22 23 23 23 24 25 23 20 20 21 20 20 19 20 21 22 24
32 34 36 36 37 38 38 35 33 32 30 34 35 33 33 33 33 32 32 34 35 30 24 21 21 23 25 25 25 24 24 24 24 21 21 20 20 20 20 21 22 21 23 26
36 37 37 38 37 38 35 30 28 30 33 32 31 32 33 33 34 36 33 31 25 25 24 23 22 24 26 26 25 24 23 24 23 23 20 20 21 20 19 20 21 21 24 23
37 37 36 34 29 26 26 26 27 33 32 32 32 34 33 34 34 33 26 25 25 26 24 24 23 22 26 26 25 24 23 23 22 19 18 19 19 20 18 18 17 19 23 22
33 31 29 27 26 25 25 26 26 32 32 32 33 33 33 33 32 29 27 24 21 26 27 24 22 24 27 26 25 24 24 23 20 18 19 19 20 17 17 18 17 20 20 18
27 27 27 27 26 26 25 25 29 32 30 31 31 32 30 26 25 25 27 26 21 20 23 25 25 27 26 25 25 22 23 20 19 20 20 20 19 16 18 17 18 20 19 18
26 25 24 23 24 24 25 27 31 32 30 31 31 27 26 25 24 25 25 28 26 25 25 26 26 28 26 25 23 22 22 23 22 21 22 20 18 18 19 17 17 19 19 19
25 22 20 20 21 23 26 29 30 32 31 31 29 26 23 22 20 24 25 25 25 24 26 27 28 27 25 26 23 22 22 24 22 20 22 17 17 18 17 18 17 18 18 18
23 22 22 23 24 27 29 29 31 33 32 31 28 21 21 26 28 26 24 25 25 26 28 29 29 26 27 25 23 21 20 23 22 20 20 19 20 16 17 17 16 17 18 16
24 25 26 27 29 29 30 30 31 31 31 31 27 23 25 27 27 26 26 25 27 28 29 29 29 28 28 28 24 21 22 22 22 22 19 18 17 18 17 17 17 15 16 16
25 27 27 27 28 29 30 31 31 29 28 30 26 22 24 24 27 27 24 23 25 25 24 25 25 26 29 29 26 24 24 23 22 21 19 19 15 16 16 15 17 16 14 15
27 27 27 27 28 30 31 31 30 28 28 27 26 25 26 27 26 25 25 25 23 25 25 24 24 28 29 26 26 26 25 24 22 20 20 17 15 15 14 13 16 15 15 14
26 26 27 28 29 31 32 31 30 29 29 26 26 27 27 27 26 24 22 24 24 24 24 24 27 27 26 24 24 26 26 24 22 21 20 18 16 13 15 13 16 12 13 14
23 25 28 29 31 31 29 30 31 30 29 28 29 29 27 27 26 27 26 26 26 25 26 26 28 25 24 23 25 26 25 25 23 22 21 16 15 15 14 14 14 12 12 13
25 27 28 31 30 29 30 31 30 29 28 28 29 29 28 27 25 24 23 23 24 25 23 25 28 25 24 23 25 26 25 24 24 22 22 19 16 14 16 14 12 12 12 11
26 26 29 30 30 30 32 30 29 29 28 28 30 30 29 28 28 25 25 28 26 24 23 26 27 28 26 25 25 26 25 24 22 20 20 20 17 14 14 12 12 12 11 9
27 28 30 30 31 31 31 31 30 29 30 29 29 29 28 26 25 23 23 24 24 24 24 25 26 27 28 27 26 26 26 23 23 22 21 20 19 15 14 12 12 12 10 10

GFSNGP_sfc_30mbdewp_015.txt.gz
Dewpoint
31 31 32 32 32 33 32 32 30 29 30 31 33 37 38 38 39 38 38 39 40 40 39 40 41 40 39 35 37 38 38 36 34 33 33 35 37 36 35 33 32 29 26 23
32 33 34 32 33 33 33 33 32 30 28 32 38 38 39 39 39 38 39 39 40 39 39 40 41 39 37 37 37 39 39 37 37 38 38 37 36 33 33 34 30 23 20 20
26 32 31 24 27 30 30 28 28 27 29 38 37 37 37 38 39 39 39 38 35 37 39 40 41 38 36 36 38 38 37 38 38 37 37 37 36 35 33 25 20 19 19 20
28 31 23 23 29 29 29 29 30 33 36 37 37 37 37 39 39 38 35 32 32 35 40 40 37 36 36 37 37 37 38 38 36 36 36 32 26 22 19 19 18 18 18 20
29 27 27 27 26 28 28 29 35 35 36 34 35 37 36 40 37 36 34 33 37 39 36 36 35 36 36 36 30 34 31 24 23 23 22 21 19 19 19 17 17 18 21 22
28 25 23 23 26 35 36 29 36 37 34 34 36 33 35 37 35 34 35 38 36 36 35 35 35 36 35 30 23 23 23 23 22 21 21 20 20 18 18 18 19 21 21 20
28 26 26 28 29 31 26 24 35 35 35 36 37 38 39 36 35 36 36 35 35 34 34 35 36 36 36 26 25 22 23 22 22 22 22 20 19 18 19 20 20 18 17 17
26 25 23 30 32 29 31 33 35 36 38 39 38 37 36 36 35 33 33 34 34 33 33 36 36 33 32 26 22 23 22 22 23 23 21 20 19 20 20 19 18 16 17 18
27 26 30 32 33 34 35 35 36 40 39 39 36 32 35 34 33 31 32 33 33 32 36 36 33 28 23 22 22 22 23 23 24 24 22 20 20 20 19 18 18 18 19 19
32 32 31 34 36 36 37 39 40 39 36 33 32 32 34 33 31 31 32 33 35 32 30 26 26 24 25 24 24 23 23 24 25 22 21 20 20 21 20 20 19 20 20 19
35 36 37 36 37 39 41 40 37 37 36 34 33 34 33 29 30 31 33 35 32 32 28 29 29 27 25 24 24 23 23 23 23 23 22 20 19 20 22 22 21 20 19 22
34 36 36 36 41 42 37 36 35 33 31 31 32 33 30 29 30 32 34 32 31 29 28 26 24 25 26 26 25 24 23 22 23 23 22 19 19 20 21 21 21 20 21 21
37 38 39 41 38 37 34 32 33 33 31 29 32 31 31 30 31 34 34 31 28 27 23 25 24 22 25 26 25 24 23 23 22 22 22 19 19 19 16 17 19 20 20 19
39 39 38 35 34 35 31 33 33 32 30 32 32 32 32 30 31 31 31 29 26 24 23 26 23 22 26 26 25 23 22 21 21 21 21 21 20 19 15 17 15 16 18 18
36 35 34 34 30 24 23 23 23 27 28 30 31 31 31 30 29 28 28 25 26 25 22 23 23 24 26 25 24 24 22 21 22 22 21 20 20 18 17 17 14 15 16 15
28 28 28 23 21 22 22 19 20 23 27 29 29 30 30 30 30 29 25 26 25 23 24 24 24 25 27 27 24 23 22 22 23 22 20 21 17 17 17 16 15 15 14 15
29 31 27 22 23 23 22 21 24 26 28 29 29 29 29 29 28 25 22 24 24 23 25 26 26 27 27 27 27 26 22 22 23 22 21 21 17 17 16 16 14 14 15 16
29 28 27 23 22 24 26 26 26 27 28 29 29 29 29 29 28 28 21 24 24 24 26 26 27 27 27 27 27 26 24 21 23 22 20 19 17 16 16 15 14 14 13 14
26 25 25 26 27 28 27 25 26 27 27 28 29 29 29 30 27 23 25 24 25 24 25 26 24 23 25 26 27 26 23 22 22 21 20 18 17 16 15 15 14 13 13 12
20 22 24 25 27 27 26 25 25 25 26 29 30 29 28 27 27 27 25 25 24 24 24 23 23 22 22 25 26 25 21 21 21 21 19 18 15 15 14 14 14 13 13 12
21 22 23 24 24 24 24 23 23 24 28 30 29 28 28 28 27 25 25 24 22 25 23 23 24 24 27 26 25 24 23 22 22 20 19 18 15 14 13 12 13 12 12 12
24 24 24 24 24 24 24 24 24 25 29 29 30 29 28 27 26 24 26 25 23 22 23 23 23 25 26 23 23 24 24 24 24 21 19 17 15 14 12 11 13 13 11 11
25 25 25 25 24 25 25 25 26 27 31 30 31 30 27 27 27 25 24 24 24 23 24 24 25 27 25 23 23 24 24 25 24 22 20 18 17 14 12 12 12 11 12 11
26 26 26 26 26 25 25 26 27 28 29 31 31 29 28 26 26 26 26 24 23 24 25 26 25 26 26 25 24 23 24 24 23 22 21 19 17 15 12 12 13 11 11 11
25 25 26 26 26 26 27 28 29 30 31 28 29 29 29 28 26 24 22 23 24 26 24 24 26 27 27 26 25 25 24 24 23 22 20 19 18 16 14 12 12 10 11 10
26 27 28 28 28 28 29 29 29 31 29 27 28 28 29 28 27 25 23 22 24 24 24 25 26 25 26 25 25 25 24 24 23 22 20 19 18 17 15 13 12 10 10 10
27 27 28 28 29 29 30 31 30 29 28 29 28 28 29 28 27 26 23 22 23 24 26 25 25 24 24 23 22 23 24 24 23 22 20 19 18 18 16 14 10 8 10 8

GFSNGP_sfc_30mbdewp_018.txt.gz
Dewpoint
31 31 32 32 32 32 32 31 29 28 29 31 32 35 37 38 39 39 38 39 39 39 36 36 37 40 41 39 37 37 38 38 36 35 37 38 37 36 35 34 33 30 24 22
31 33 32 31 32 32 33 33 33 32 32 33 37 38 36 37 38 38 39 39 34 32 29 31 38 41 39 37 36 38 37 36 37 39 37 37 36 35 34 34 35 24 20 20
22 30 30 21 23 29 30 31 28 25 26 35 36 34 35 37 37 38 37 34 32 31 35 39 38 37 36 36 37 37 37 37 38 38 37 37 37 35 34 25 20 19 19 19
28 29 21 22 29 29 28 28 29 29 31 37 35 35 37 38 37 36 34 33 33 37 36 35 35 35 36 36 34 33 34 32 30 29 30 28 22 20 20 19 18 18 19 21
27 26 27 27 26 27 28 27 30 31 36 35 35 36 35 38 35 35 33 35 36 34 34 34 34 35 35 33 29 29 31 28 24 23 21 20 20 20 19 18 18 19 21 21
28 25 22 24 26 35 35 26 32 36 33 33 35 33 35 37 36 34 36 35 34 34 34 34 34 36 37 35 23 25 24 23 23 22 22 21 19 19 18 19 20 21 20 19
29 27 28 29 29 30 25 25 35 35 35 35 35 37 36 33 34 36 34 33 34 33 32 33 35 36 35 35 27 23 24 24 23 23 22 20 20 19 20 20 20 17 17 18
26 25 22 29 31 29 29 34 35 35 36 39 38 35 31 30 35 35 30 31 33 33 32 35 33 29 25 25 22 24 24 23 24 24 23 20 20 20 20 19 18 18 17 18
28 27 30 31 32 33 34 36 36 38 38 36 34 31 28 31 35 33 30 31 33 33 32 29 26 25 25 27 26 24 23 23 24 24 22 21 19 19 20 20 19 19 19 19
31 32 32 35 37 37 38 38 40 40 37 34 30 30 31 33 34 29 30 31 34 32 30 29 28 30 27 25 24 23 23 23 23 23 22 21 19 20 20 20 19 20 19 19
35 36 37 38 38 39 41 39 37 37 34 32 32 32 32 34 31 29 30 32 34 32 31 29 28 26 25 25 25 23 23 23 23 23 23 23 19 20 21 21 21 20 19 20
33 35 37 38 40 38 35 34 30 31 32 33 33 32 33 32 31 30 30 32 33 31 30 27 24 25 25 26 25 24 24 23 23 22 22 21 20 20 21 20 21 19 19 19
37 39 40 38 36 35 31 29 31 33 32 31 31 31 32 31 31 31 31 33 32 30 27 23 25 23 22 26 25 24 23 22 21 22 21 21 21 20 18 17 19 18 19 18
39 39 36 36 35 33 31 27 22 19 23 28 29 31 30 30 31 31 30 30 29 25 25 24 24 23 24 26 24 23 22 20 20 21 21 20 19 19 18 16 15 14 16 17
29 31 34 31 26 21 21 19 19 19 21 25 28 29 29 30 30 30 30 29 26 25 25 23 23 23 25 26 24 23 23 22 21 21 21 19 20 17 16 16 15 13 13 14
31 28 27 26 24 22 22 23 21 21 23 25 27 28 29 30 30 30 30 28 24 21 25 24 25 25 26 28 26 24 23 22 22 22 21 20 20 17 16 16 15 13 13 14
28 28 27 24 24 24 23 23 25 24 24 25 26 28 28 28 27 28 27 27 23 24 23 26 25 26 27 26 26 26 24 23 22 22 21 19 18 16 16 15 14 13 13 13
26 26 27 28 26 25 26 27 28 26 25 25 26 28 29 29 27 27 29 26 23 23 25 26 25 26 25 26 26 26 25 23 22 22 20 19 18 16 15 14 14 13 12 12
22 22 23 24 24 25 26 26 26 26 25 24 24 27 29 29 28 28 27 24 24 24 25 26 24 22 22 23 25 24 23 21 21 21 20 18 17 15 14 13 13 12 12 12
22 22 23 23 24 24 24 24 24 24 24 24 24 28 29 29 28 27 25 24 26 25 23 22 21 22 24 26 26 23 22 21 20 20 18 18 16 15 13 13 12 12 11 11
22 23 24 24 24 24 24 24 23 23 24 24 24 28 29 29 29 27 24 24 26 23 24 22 22 23 26 26 23 23 23 23 22 21 20 18 17 15 13 11 11 12 11 10
24 24 24 24 24 24 25 25 24 24 24 24 25 29 31 30 27 25 26 26 25 24 22 22 23 24 26 26 23 23 24 24 24 22 20 18 16 15 14 11 11 11 11 10
25 25 25 25 25 26 26 25 25 25 25 26 28 30 29 29 27 25 24 25 26 23 23 24 24 26 27 26 24 23 23 23 23 22 21 19 18 16 14 13 11 11 11 11
25 26 26 26 26 25 26 27 27 27 28 28 29 30 28 26 26 26 25 23 24 23 24 25 26 25 27 26 25 24 24 23 23 22 21 19 18 16 14 13 12 11 10 10
26 25 25 26 27 27 27 28 28 29 29 30 29 28 28 27 26 25 24 23 24 24 25 24 26 27 26 26 25 23 23 23 22 22 21 20 19 17 15 14 12 11 11 9
26 26 27 28 27 27 28 28 29 30 30 28 26 27 28 27 25 23 23 23 22 23 25 25 26 26 24 24 22 21 21 22 22 22 21 20 19 18 16 15 13 11 10 10
26 26 26 26 27 28 28 29 30 30 30 28 27 27 28 27 27 26 25 23 23 23 24 25 25 24 24 24 23 20 20 21 21 20 20 19 18 18 17 16 14 13 9 9

GFSNGP_sfc_30mbdewp_021.txt.gz
Dewpoint
30 30 31 31 31 32 31 31 29 27 28 29 31 33 36 35 37 38 38 39 38 34 31 34 38 36 34 35 36 37 38 37 37 36 38 36 36 36 35 34 34 35 33 24
30 32 31 29 30 31 32 32 32 32 31 33 35 38 36 36 36 37 39 37 34 32 36 35 31 32 34 35 36 38 36 37 38 39 39 38 37 36 35 36 34 25 22 21
21 29 29 21 22 28 30 32 30 26 26 33 36 35 34 35 37 38 36 34 33 35 32 31 32 34 35 36 36 33 35 36 36 34 33 33 31 24 22 22 22 20 20 20
28 28 19 21 29 29 28 28 29 29 30 32 36 35 36 37 37 36 34 33 35 32 31 32 33 34 36 36 33 32 30 31 27 25 24 23 22 22 21 20 20 20 20 21
27 26 27 27 25 26 26 26 29 30 34 35 35 36 36 38 36 35 33 35 34 32 33 32 32 35 35 36 32 26 26 24 24 23 22 22 21 20 20 20 20 20 20 19
28 25 22 24 26 36 33 25 32 35 34 34 35 34 36 35 36 32 35 35 30 32 33 32 31 34 34 34 34 27 26 26 25 24 23 22 21 21 20 20 19 20 19 19
28 26 28 30 30 30 26 27 35 36 35 36 35 36 36 37 34 35 36 32 31 32 32 32 32 30 28 28 32 24 27 25 24 24 23 22 21 20 19 19 21 22 22 22
26 25 22 29 31 28 30 33 35 36 37 37 36 36 33 31 31 33 34 31 30 32 32 32 26 25 25 25 25 26 24 24 24 24 22 20 20 18 19 20 21 21 21 20
28 28 30 31 31 33 35 37 37 38 37 34 33 30 30 30 31 32 34 30 30 32 33 31 30 27 28 28 27 25 24 23 22 22 21 21 20 19 19 20 19 19 19 18
30 32 33 34 36 40 41 38 38 37 36 36 28 29 31 31 31 32 33 30 30 32 33 31 31 30 29 26 25 24 23 22 22 23 23 23 22 20 20 20 19 18 18 17
34 36 36 37 41 39 37 35 32 29 29 28 31 31 31 31 31 32 31 31 31 32 33 31 31 28 25 25 26 24 24 23 23 23 23 23 22 21 21 22 20 19 17 17
33 36 38 38 38 37 34 30 29 30 31 31 28 27 30 28 30 30 30 31 31 32 32 31 29 25 25 25 25 25 23 23 23 23 23 22 20 20 21 21 21 20 18 17
37 40 39 37 36 35 30 30 27 26 22 20 21 27 28 29 29 30 31 31 31 31 31 28 24 25 25 25 26 25 24 24 23 22 22 21 20 20 18 18 19 18 18 17
36 38 36 36 33 32 25 22 22 21 21 21 24 26 28 29 29 30 30 30 30 30 28 25 25 23 24 26 26 24 24 22 23 23 23 22 21 20 18 18 17 16 16 16
27 29 30 28 26 25 25 23 23 23 23 23 24 25 26 27 29 30 30 30 30 30 29 26 24 23 25 26 26 25 25 24 24 23 24 22 21 20 19 18 17 16 14 14
29 27 25 21 21 25 25 24 23 24 25 25 25 25 25 28 28 29 29 28 27 27 28 26 25 26 26 28 26 25 25 24 24 24 24 22 21 20 18 17 16 15 14 13
23 15 18 20 23 26 25 24 25 25 26 27 26 26 25 27 28 29 28 28 28 28 25 25 26 26 26 27 26 26 25 25 24 24 23 21 21 19 18 17 16 15 15 14
26 26 27 25 24 24 24 25 26 26 26 26 25 24 23 24 26 28 28 28 27 24 25 26 27 25 25 25 26 24 23 23 23 23 22 22 20 19 18 17 16 15 14 14
22 22 22 23 24 24 24 24 25 25 25 25 25 24 24 25 26 29 29 28 25 24 26 27 26 23 22 24 26 26 24 23 23 22 22 20 20 19 18 17 16 16 14 13
22 23 24 24 24 24 24 25 25 25 25 25 25 24 24 25 27 28 29 27 26 27 27 24 23 22 24 26 25 23 24 23 22 22 22 21 20 20 18 15 14 15 15 14
22 23 24 24 24 24 24 24 24 25 26 25 24 25 25 26 29 30 27 25 27 27 24 23 23 23 25 26 24 23 24 24 24 24 23 22 20 20 19 17 15 15 15 14
24 24 24 24 24 24 25 26 26 25 25 25 25 26 27 29 30 29 26 26 28 24 25 24 23 24 25 27 25 24 24 24 24 24 23 22 21 20 19 18 16 16 15 14
25 25 25 25 25 25 26 26 25 26 26 27 28 29 28 29 29 26 25 26 27 26 24 25 25 25 26 27 27 26 25 25 24 24 24 23 22 21 20 19 17 16 15 15
25 26 26 26 25 25 25 26 27 28 28 29 30 30 29 27 27 27 26 23 25 24 25 26 26 26 26 28 27 26 25 24 24 24 24 22 22 21 19 18 16 16 14 13
26 26 26 25 27 26 27 27 28 27 28 30 31 29 27 28 28 27 27 26 25 25 26 25 26 26 27 26 25 24 23 24 24 23 23 23 23 22 20 19 17 16 15 14
26 26 26 27 27 27 26 27 27 27 30 30 30 28 28 29 27 24 24 24 24 23 24 27 27 27 26 25 24 23 22 22 22 22 21 22 22 22 21 19 18 16 15 15
26 24 26 26 26 26 25 26 27 27 31 31 29 28 28 29 28 27 25 26 25 25 25 26 26 26 25 25 25 22 21 21 19 19 20 21 21 21 21 20 20 18 16 14

GFSNGP_sfc_30mbdewp_024.txt.gz
Dewpoint
26 26 25 26 26 25 26 27 26 25 22 24 25 28 31 34 34 34 34 36 36 34 30 32 27 25 27 31 32 33 32 31 32 37 38 39 38 35 35 32 31 31 29 25
30 28 27 27 26 26 27 28 27 27 27 28 29 31 34 34 34 34 35 37 35 31 31 29 26 26 29 31 32 32 31 30 33 34 34 34 33 30 26 23 22 22 22 22
26 28 28 26 26 25 27 27 28 26 25 28 29 33 34 34 35 36 37 35 30 30 30 28 28 27 30 32 32 32 30 29 28 27 26 25 23 22 22 22 21 20 20 21
31 30 22 26 27 27 27 27 26 26 27 31 32 34 35 36 37 37 33 30 29 32 29 28 27 26 29 30 30 30 28 28 26 26 23 23 22 22 22 20 20 20 20 20
29 26 24 25 25 26 26 27 29 30 32 33 34 36 35 38 36 35 32 32 33 31 29 29 26 26 28 28 26 29 28 28 28 26 24 23 23 21 20 20 19 19 19 19
29 26 21 23 27 33 32 25 33 34 35 36 38 34 38 36 33 33 35 29 32 31 29 28 25 27 26 23 23 25 26 26 25 24 24 23 20 20 19 19 18 20 21 21
29 28 28 29 30 31 28 30 35 35 37 37 37 37 36 34 33 30 27 29 31 30 29 27 28 26 24 22 20 22 24 25 24 24 22 20 20 19 18 19 21 24 25 23
30 27 26 30 31 31 34 36 36 38 39 38 35 33 31 30 27 24 21 20 25 29 28 27 28 26 24 23 22 24 25 25 24 22 20 19 20 19 19 19 20 24 23 23
28 27 30 32 32 35 38 39 40 38 35 34 31 30 27 24 23 22 24 25 27 27 27 28 29 28 25 24 25 25 24 23 22 21 21 21 21 20 20 19 21 22 21 20
32 31 31 34 36 40 40 38 38 37 36 33 28 23 23 20 20 22 23 23 23 24 24 26 28 29 28 28 26 24 24 22 22 21 22 21 21 20 19 20 21 19 18 18
32 34 36 37 40 39 36 36 33 28 25 26 24 21 17 16 16 17 21 21 23 25 26 26 27 28 28 26 25 24 23 23 22 22 23 22 21 20 20 21 21 19 17 16
34 37 39 38 37 37 33 27 23 23 22 21 17 14 15 16 17 19 21 24 24 24 25 25 25 27 26 24 24 23 23 22 22 24 24 22 20 20 21 21 20 20 18 17
38 40 39 36 36 32 25 24 22 22 20 17 17 18 18 18 17 20 22 23 24 27 27 26 27 28 27 26 27 27 25 25 25 24 23 21 21 20 19 19 19 19 18 16
39 37 35 36 32 27 24 23 21 18 18 19 20 22 22 21 20 20 21 24 28 26 26 26 30 31 28 30 27 28 27 25 25 24 23 23 22 21 20 19 19 16 16 16
31 35 35 29 26 25 20 17 17 15 16 17 17 19 21 22 22 23 25 28 28 26 26 29 30 29 31 27 26 26 26 24 24 24 24 24 23 21 20 19 18 15 14 13
28 26 22 19 15 15 15 15 17 18 18 18 21 24 25 25 25 26 26 28 28 27 27 30 28 29 29 28 26 24 23 24 25 23 23 23 21 20 19 18 17 15 14 13
26 14 14 16 15 17 18 19 20 20 23 25 25 28 28 28 27 27 28 29 32 31 31 28 28 29 28 26 25 23 22 22 24 22 23 22 21 20 19 18 17 15 14 15
18 17 17 18 19 20 21 21 23 25 26 26 28 28 28 27 27 27 28 30 32 31 29 28 29 27 26 24 24 22 21 23 22 22 22 22 21 20 19 19 18 15 15 14
16 17 18 21 23 24 24 24 26 27 28 28 28 28 28 27 28 28 29 30 30 29 28 28 27 25 22 25 24 22 23 22 21 21 22 21 22 21 20 20 19 17 15 14
17 19 21 24 25 26 26 27 28 28 28 28 28 28 28 27 28 28 29 30 30 29 29 27 25 24 25 25 25 20 22 24 22 21 23 22 21 21 21 20 19 18 16 15
21 22 26 26 26 27 27 27 27 27 28 28 27 27 28 29 29 30 30 27 30 29 27 25 24 22 22 23 22 23 24 24 24 23 24 24 23 22 21 21 20 19 17 16
22 25 27 27 27 27 28 29 29 29 28 28 28 29 30 30 30 29 29 27 29 28 26 25 23 23 22 25 24 25 23 22 23 23 23 24 23 23 22 22 20 20 18 16
24 26 27 28 28 28 28 29 29 29 29 29 28 29 30 31 29 27 25 29 29 28 27 27 26 25 25 25 26 26 26 25 24 24 25 25 23 22 22 21 21 20 19 17
25 26 27 28 29 28 29 28 28 28 28 28 29 31 32 29 28 30 30 27 26 28 28 29 28 26 23 26 26 25 24 24 23 23 24 24 25 24 23 22 21 20 19 17
28 28 28 29 28 26 27 27 26 26 26 27 29 32 33 31 29 29 30 30 26 26 28 29 27 27 27 27 26 24 23 22 22 22 22 23 24 25 25 23 22 21 20 19
27 27 26 26 27 28 28 27 25 25 26 27 30 32 32 31 31 30 30 30 29 27 27 29 29 28 28 26 25 24 24 22 20 20 21 22 23 23 23 23 23 22 21 19
28 28 27 28 28 28 28 26 26 26 27 29 29 30 32 31 31 31 30 29 29 29 29 29 28 26 26 26 24 25 23 22 21 20 20 21 22 22 22 23 24 23 21 20

GFSNGP_sfc_30mbdewp_027.txt.gz
Dewpoint
25 22 20 20 21 22 21 21 23 23 23 24 26 27 28 29 32 32 32 33 35 36 34 31 29 26 25 25 27 29 29 28 28 33 34 36 36 35 33 31 25 23 21 20
28 24 20 19 21 22 22 23 24 24 23 27 28 27 28 31 31 32 34 36 37 33 30 30 26 26 24 24 27 29 28 27 28 29 28 28 28 26 24 24 24 21 19 19
28 30 28 27 27 21 22 24 24 24 26 26 27 30 32 35 35 37 39 36 31 30 31 30 27 26 23 24 24 26 27 25 27 27 27 27 26 25 24 22 19 18 18 18
32 30 22 21 23 24 23 24 25 25 26 28 30 35 36 38 37 37 36 32 30 33 31 27 27 26 23 23 22 23 23 25 25 27 27 25 22 21 19 17 18 18 18 18
31 25 22 23 26 26 26 26 27 29 31 31 33 35 34 37 37 35 32 32 33 31 28 28 26 25 24 23 20 20 21 23 24 26 22 21 20 18 18 18 18 17 18 21
31 28 21 22 25 30 29 25 32 34 33 34 35 34 36 36 35 32 33 32 26 25 25 25 26 25 25 23 21 19 19 20 23 22 21 20 18 17 18 17 16 19 23 21
30 28 27 26 30 31 27 31 36 36 39 39 37 37 37 34 33 33 27 23 20 20 23 24 25 24 23 23 21 19 20 23 24 22 21 19 17 18 17 16 19 27 29 25
32 28 26 30 30 32 35 37 40 39 38 37 37 35 33 32 26 24 21 20 20 21 20 20 21 21 21 23 21 22 25 24 24 22 20 18 18 18 17 17 20 26 27 25
31 30 30 31 34 39 40 39 39 37 37 37 34 30 25 23 21 17 15 14 15 16 17 18 19 19 19 24 28 30 26 25 24 23 19 18 18 17 17 18 20 24 22 22
33 31 30 33 38 40 39 38 38 37 35 30 24 25 22 16 13 12 12 13 14 16 17 18 18 17 18 22 29 30 25 25 25 22 20 20 19 17 18 20 22 21 19 19
33 33 35 40 40 39 37 36 34 28 24 24 23 19 16 13 12 12 12 12 13 16 17 17 18 18 19 20 27 26 27 29 25 21 20 24 22 20 20 21 22 19 17 17
34 39 40 39 39 37 34 29 25 23 23 21 18 15 14 15 16 15 15 16 16 16 18 19 20 21 23 29 27 28 30 29 22 23 24 24 22 20 22 23 21 20 19 18
38 39 39 37 36 32 29 26 24 23 18 15 15 15 15 15 15 17 17 18 18 20 22 22 24 25 27 33 30 31 30 25 24 25 25 25 23 22 22 23 25 23 20 18
38 38 35 35 35 31 27 25 20 16 14 14 15 15 15 16 19 20 20 21 22 22 26 25 27 28 32 31 31 31 28 27 26 24 26 25 24 24 23 22 20 20 24 19
37 39 36 34 28 25 19 16 14 14 15 16 15 17 21 22 22 22 24 25 26 27 27 27 29 29 29 29 29 28 28 25 26 26 27 26 24 25 23 22 22 20 17 18
32 27 24 19 17 15 15 15 15 16 16 18 21 23 24 24 26 27 26 27 28 28 29 32 31 29 28 28 27 26 23 23 24 23 25 26 25 24 22 21 20 20 17 18
28 20 18 17 16 16 16 17 18 19 21 23 23 27 28 28 29 26 26 28 31 31 33 32 29 29 28 27 25 23 21 23 25 24 24 25 24 23 23 21 21 19 18 20
20 19 16 16 16 17 19 21 23 23 23 25 29 30 30 29 28 28 29 30 31 31 33 30 29 27 26 24 24 21 21 22 23 25 25 25 24 22 22 22 22 21 19 17
17 15 16 16 18 21 23 23 23 27 29 31 31 30 30 30 30 30 30 30 30 30 31 29 28 26 24 23 22 22 24 24 24 24 24 24 24 25 23 23 22 22 21 18
15 15 16 19 23 27 27 28 30 28 28 29 30 30 29 29 30 31 31 30 31 30 29 27 26 24 24 23 24 21 24 25 24 24 25 24 23 24 24 23 23 21 22 20
22 20 22 27 29 30 30 30 30 29 30 31 30 29 29 29 31 32 29 26 30 29 28 26 26 23 22 22 23 24 25 24 25 25 25 25 24 24 24 24 23 22 22 21
19 21 26 28 29 30 31 32 31 32 31 30 29 28 28 28 30 30 29 28 28 29 28 26 25 24 22 24 21 27 25 24 24 25 25 25 24 24 24 24 23 23 23 22
20 22 24 28 29 29 30 31 31 31 31 30 28 27 28 29 32 29 26 30 29 30 29 29 29 25 25 27 27 27 27 26 25 25 25 26 26 26 25 24 24 23 23 22
23 23 25 27 29 31 30 28 28 29 31 30 28 29 29 29 32 30 31 30 28 28 30 31 30 27 26 28 27 27 27 26 24 25 25 25 26 26 26 25 23 24 23 22
26 28 28 30 30 26 24 25 27 27 28 27 27 28 31 34 32 31 32 32 30 29 30 31 28 27 28 29 28 27 26 25 24 24 22 23 24 24 26 26 26 24 24 22
25 26 26 25 26 26 27 28 28 28 27 27 29 31 33 33 33 33 32 32 31 31 30 31 31 30 30 29 28 27 26 24 24 24 23 21 22 23 24 25 25 26 24 22
26 27 28 27 26 27 29 28 28 29 29 30 30 30 30 31 32 32 32 32 31 31 31 31 31 30 29 28 28 27 27 25 24 23 21 20 21 23 23 23 24 25 26 24

GFSNGP_sfc_30mbdewp_030.txt.gz
Dewpoint
25 21 20 17 16 16 17 21 21 23 21 24 28 28 28 34 34 34 35 37 38 36 34 32 32 31 28 27 26 27 28 29 29 31 31 32 32 33 31 29 28 27 26 23
28 22 21 19 18 22 20 21 20 23 23 27 28 33 34 35 36 35 39 40 38 33 32 32 32 30 27 27 25 26 26 28 28 28 30 30 30 30 29 27 27 24 22 22
28 31 29 27 28 22 21 23 24 24 25 26 31 34 35 35 37 37 37 36 34 33 33 33 33 27 27 27 25 25 24 25 26 26 29 29 29 27 25 25 22 22 21 22
28 31 19 21 23 24 23 24 26 25 26 32 32 34 36 37 37 37 35 34 33 32 33 34 28 27 27 27 25 25 23 21 22 25 25 27 27 24 23 21 21 21 21 25
30 27 24 24 26 28 28 27 28 32 34 35 37 36 35 38 37 36 35 34 33 32 29 24 24 26 27 26 25 24 24 22 22 23 25 25 24 23 21 20 21 20 22 24
30 26 22 24 25 30 29 25 37 37 38 38 37 34 35 37 37 35 34 30 25 24 21 22 22 22 22 22 22 23 25 27 30 28 25 25 24 20 20 20 19 27 26 26
30 27 29 28 29 30 25 32 40 39 38 38 36 37 37 36 34 31 26 22 19 17 17 17 18 19 19 18 18 27 31 31 29 27 27 25 21 20 20 20 24 27 28 29
31 28 25 31 33 33 37 39 40 39 38 36 36 35 33 29 24 22 17 15 13 13 14 16 17 17 17 16 18 25 29 30 32 31 27 25 20 21 21 20 23 26 26 25
33 31 33 35 39 41 41 39 38 37 35 36 32 25 25 22 18 16 14 12 13 12 13 15 17 18 17 18 22 27 32 34 32 29 28 25 21 20 20 21 23 24 24 22
32 32 31 38 40 39 39 39 38 36 34 27 25 24 21 17 15 15 15 15 15 15 15 17 18 19 19 22 24 29 30 32 31 30 29 23 24 23 21 22 23 22 21 20
31 32 33 40 40 39 38 36 33 28 24 24 22 19 16 16 15 15 15 16 16 17 18 18 19 21 22 25 29 29 32 31 31 29 26 25 24 23 22 24 22 22 21 20
34 39 39 40 39 39 37 31 26 24 23 20 16 15 16 16 15 15 17 19 19 20 21 22 22 23 23 29 30 30 30 31 31 30 26 25 24 24 24 23 24 23 21 20
38 40 40 39 38 37 32 27 24 23 18 15 15 16 15 15 17 20 20 21 22 23 24 25 26 27 29 31 32 31 29 27 27 26 25 26 26 25 25 25 26 27 25 23
39 38 37 37 35 34 30 26 19 16 15 16 16 16 17 20 21 22 21 24 25 25 26 27 28 32 32 31 30 30 30 27 28 28 25 26 27 26 25 25 24 24 24 25
39 39 38 36 33 27 22 16 15 15 15 16 17 20 22 23 23 24 25 26 26 26 27 28 29 32 30 29 27 26 27 26 25 23 25 27 27 25 26 25 24 23 23 24
35 31 28 24 19 17 16 16 16 16 17 19 23 25 26 25 26 27 27 25 27 28 29 30 31 32 30 27 27 26 26 24 23 23 25 26 26 27 25 25 24 23 22 23
30 24 20 19 18 17 17 18 20 22 23 25 26 28 29 29 29 28 28 29 30 30 30 30 32 30 28 27 25 24 24 23 23 24 26 26 27 25 26 25 24 23 22 22
24 21 19 18 17 17 19 23 25 26 26 28 28 29 30 29 28 29 30 30 30 30 30 33 30 28 26 26 25 24 23 23 25 25 26 26 26 26 23 24 24 24 24 22
19 17 17 16 18 24 26 26 26 28 28 29 30 29 29 30 30 30 29 28 29 28 30 28 27 26 25 24 22 22 24 25 25 25 26 26 26 25 26 25 25 24 22 22
18 18 18 19 23 25 27 28 29 29 29 29 29 30 29 28 28 28 28 30 31 30 29 27 27 26 25 23 24 23 22 24 24 25 26 26 26 26 27 25 25 25 24 24
25 24 23 24 25 29 30 30 30 30 31 32 31 29 28 29 29 29 30 29 28 30 28 27 26 26 25 23 25 25 25 26 26 25 25 25 25 25 25 26 26 25 25 25
23 23 23 25 27 28 30 31 32 32 31 30 31 30 28 28 28 29 30 28 29 29 28 28 28 27 26 24 22 24 27 27 26 26 26 26 26 26 25 25 25 25 25 24
25 25 24 25 27 29 31 31 30 30 31 31 31 31 27 28 29 29 29 30 31 32 30 30 31 29 26 25 26 27 27 27 26 26 26 26 26 26 25 25 25 24 23 23
26 26 26 27 29 29 29 30 30 30 31 32 33 30 27 27 29 32 34 32 31 31 30 31 30 30 27 28 28 27 27 27 27 26 26 26 26 25 26 26 26 27 25 24
25 26 27 28 28 30 30 28 27 29 29 28 28 28 29 31 31 31 32 32 32 32 31 30 30 29 28 28 28 28 27 27 26 26 26 24 24 25 24 25 25 26 27 26
27 27 27 28 28 28 28 29 30 30 29 28 29 30 31 33 33 33 32 32 32 32 31 31 31 31 30 29 28 28 28 27 26 26 26 25 24 24 24 25 25 25 26 27
27 28 29 29 29 28 30 30 29 29 28 28 27 27 29 30 30 30 31 32 32 32 31 31 32 31 30 30 29 28 28 28 27 26 25 24 23 23 24 24 24 24 25 25

GFSNGP_sfc_30mbdewp_033.txt.gz
Dewpoint
29 24 22 20 19 19 17 18 19 21 24 28 32 35 36 37 36 39 39 38 36 34 33 33 33 33 33 28 27 26 25 26 28 32 32 32 31 32 31 30 29 28 24 23
23 30 26 20 22 25 23 22 24 25 25 33 35 35 36 37 37 37 37 35 34 33 33 33 34 33 29 27 27 28 26 26 26 30 30 31 30 29 29 28 27 23 22 24
19 30 27 26 25 22 23 25 25 24 30 34 35 35 36 37 37 36 35 35 34 33 33 33 33 34 31 27 28 28 28 27 26 29 30 30 29 29 27 26 22 22 22 24
21 29 7 26 26 29 28 29 31 35 36 37 36 37 37 37 36 36 36 35 34 33 33 33 33 32 27 25 27 29 27 27 28 29 29 30 32 28 25 20 20 21 24 25
22 27 25 25 27 28 28 32 37 37 37 38 37 36 38 37 37 36 35 35 34 34 33 29 21 19 20 20 19 21 29 31 32 33 33 34 31 27 21 19 20 23 26 25
28 18 12 25 30 30 29 26 38 38 37 37 34 29 32 37 36 35 34 34 33 19 15 16 18 18 19 18 17 22 25 33 34 35 35 34 33 27 20 21 26 26 25 27
29 25 26 31 30 30 25 27 39 39 38 36 32 35 36 35 34 34 31 17 14 13 13 15 16 17 17 17 18 27 29 32 34 34 33 33 26 20 21 24 26 26 25 26
29 26 22 33 34 28 35 40 38 37 37 35 35 34 34 32 25 20 16 14 15 14 15 16 16 17 18 18 24 28 29 31 35 35 33 27 23 21 22 24 24 23 22 21
29 27 31 36 37 41 41 38 38 36 36 35 34 27 26 23 17 16 16 16 17 16 17 18 19 20 20 23 26 29 31 32 32 32 31 27 22 22 22 23 22 22 21 20
33 33 37 40 39 39 39 38 38 36 35 34 26 26 19 17 16 15 15 17 18 19 20 21 22 23 23 25 30 30 32 32 31 30 29 27 25 23 22 22 22 23 22 19
32 36 39 40 39 39 39 38 35 33 30 25 19 17 17 16 16 17 20 20 21 21 23 24 24 25 26 28 30 29 29 28 29 30 28 25 24 23 23 23 22 21 21 19
30 37 38 39 39 39 37 32 32 26 24 19 17 16 16 16 19 21 22 22 22 24 25 25 27 27 30 32 31 30 29 27 27 28 27 25 25 24 25 24 24 25 25 22
40 40 40 40 39 38 35 32 26 22 18 17 17 17 19 21 22 23 23 23 25 26 26 26 27 28 33 32 32 31 29 28 27 27 25 24 25 24 22 23 26 25 26 27
39 38 37 37 36 37 34 29 19 17 18 18 19 22 23 23 25 24 24 26 27 26 26 27 28 29 30 33 29 28 30 28 26 25 22 21 22 23 22 25 23 23 24 25
39 39 38 38 36 34 32 18 17 17 19 20 24 24 26 26 25 25 27 27 27 26 27 28 28 28 32 31 27 26 25 24 24 21 21 23 24 24 26 25 23 24 23 23
38 36 35 34 23 18 18 18 19 21 22 23 24 25 27 27 27 28 28 29 27 28 29 29 28 29 32 28 26 26 25 26 25 23 22 23 23 25 26 23 24 23 22 22
32 26 22 20 19 18 19 24 24 24 25 25 25 27 27 28 28 28 28 28 29 28 28 29 30 32 29 27 25 23 24 23 22 20 21 23 24 25 25 24 21 22 22 23
26 20 19 19 19 21 23 26 25 25 25 27 27 26 27 28 28 28 27 27 27 27 27 31 28 28 26 25 24 22 21 20 20 23 23 23 24 25 24 21 23 24 24 23
19 19 20 20 24 22 21 22 26 27 26 27 28 27 28 28 27 26 27 27 27 27 27 29 27 27 26 25 22 21 20 23 22 21 22 24 24 24 24 24 25 25 23 21
21 22 21 20 21 22 23 26 27 28 28 28 28 28 29 27 27 26 26 27 27 29 30 28 26 26 26 26 24 23 21 19 21 22 21 25 24 24 25 25 25 24 24 23
22 23 22 22 23 25 27 27 28 28 29 30 30 29 28 29 27 26 27 26 27 29 29 28 27 26 26 25 25 24 23 22 23 25 22 21 22 24 24 24 24 24 24 24
25 23 22 23 24 25 27 28 29 30 30 29 28 28 29 29 27 27 27 27 28 32 31 29 28 28 27 27 24 21 21 23 25 25 25 24 25 23 23 24 24 25 25 24
23 25 25 25 25 26 29 29 28 28 28 28 30 30 30 31 28 26 26 28 32 32 32 31 31 31 30 30 26 23 22 22 24 24 25 25 23 23 24 23 24 25 24 22
26 26 26 27 27 27 26 27 28 30 29 30 31 31 30 28 27 28 30 32 32 31 31 31 31 31 30 27 27 26 25 24 25 25 26 25 24 25 21 22 24 24 25 25
25 25 26 26 26 27 28 29 29 28 29 29 29 29 28 29 30 30 31 31 31 31 31 32 31 30 29 28 27 27 26 26 26 27 26 24 23 22 22 23 23 24 24 24
26 27 27 28 28 28 29 29 29 30 29 29 28 27 27 28 29 29 30 30 31 31 31 32 32 31 30 30 29 29 27 27 27 27 26 25 24 24 23 23 24 24 24 24
28 28 28 29 29 29 30 30 28 28 29 29 27 26 27 28 29 30 29 29 29 29 30 31 31 31 31 31 30 29 28 28 28 27 26 25 24 23 22 23 24 24 23 22

GFSNGP_sfc_30mbdewp_036.txt.gz
Dewpoint
28 26 24 21 20 19 17 18 17 22 27 32 35 35 36 38 38 37 36 35 34 34 33 33 33 34 34 32 29 29 28 27 27 28 32 33 34 33 34 32 31 29 25 25
21 31 27 21 20 26 25 22 24 29 32 35 36 37 37 37 37 36 35 35 34 34 32 31 32 33 34 33 30 29 29 28 30 29 31 31 32 33 32 30 32 24 23 24
5 29 24 17 25 22 24 27 26 24 31 35 35 36 36 36 36 35 35 35 34 32 32 33 33 32 23 23 24 24 26 30 30 29 31 32 32 34 35 34 28 22 24 25
16 22 4 23 28 27 31 34 34 35 36 36 36 37 37 36 35 34 34 32 32 33 33 28 27 21 20 20 19 20 28 31 32 32 32 33 34 34 32 30 26 21 25 24
16 20 18 25 28 28 26 30 37 37 37 37 36 37 37 37 36 34 33 33 34 32 26 21 17 18 18 18 19 26 29 31 31 34 34 35 35 34 33 33 24 25 25 24
27 12 5 19 30 30 29 25 38 38 37 35 34 30 31 35 35 32 33 33 24 19 15 15 16 17 18 18 21 26 28 29 32 34 34 35 34 34 32 23 26 25 25 25
25 20 22 26 31 30 25 21 39 38 37 35 32 32 34 35 32 32 23 15 16 16 16 16 18 19 19 19 23 27 28 30 34 35 34 34 33 26 24 26 25 24 23 23
28 26 16 31 33 27 28 39 39 38 37 35 35 34 32 32 23 16 15 16 17 17 18 19 21 22 22 21 24 28 31 32 32 32 32 32 24 24 25 25 23 22 20 20
27 23 28 35 32 39 40 38 37 37 36 35 33 31 27 18 16 15 16 18 19 20 20 22 23 24 24 24 26 29 32 32 31 31 30 29 23 22 23 23 21 22 21 20
31 31 34 38 39 40 39 38 37 37 36 34 29 25 18 16 16 17 19 20 21 21 23 24 26 26 27 28 30 30 31 29 28 29 29 26 24 23 22 21 21 22 21 20
33 38 39 39 39 39 38 38 36 35 33 30 20 17 16 16 18 21 21 22 22 23 25 26 26 25 28 32 33 33 32 30 26 29 30 28 25 22 23 23 22 22 22 21
30 35 35 36 39 39 37 36 32 30 26 18 17 16 17 19 22 23 23 23 24 25 26 26 25 26 28 32 33 31 30 29 27 27 27 25 25 25 24 25 25 26 26 23
36 41 39 39 39 39 36 32 32 23 19 17 18 20 21 22 23 25 23 24 25 26 27 26 26 27 29 30 32 30 29 29 27 27 25 22 20 23 21 21 26 24 26 25
39 38 38 38 37 38 35 29 20 19 19 20 22 24 24 24 25 24 23 26 27 27 27 27 28 26 27 30 32 28 28 30 27 24 21 20 23 22 23 24 23 21 24 25
38 38 37 38 38 36 30 19 19 19 21 23 24 24 25 25 25 25 27 28 28 28 28 28 27 26 28 32 29 27 27 26 28 24 20 21 23 23 23 25 22 22 21 22
39 37 37 35 31 23 19 20 20 22 23 24 23 24 26 27 27 28 28 28 27 26 26 26 27 28 32 30 27 25 24 25 25 23 20 20 22 23 24 25 23 20 20 21
35 30 22 20 20 21 22 24 24 23 24 24 25 26 26 27 28 28 27 26 26 26 27 27 28 30 29 27 26 24 24 23 23 22 20 21 21 21 23 24 22 21 21 21
26 23 24 23 21 22 24 24 24 24 24 26 26 26 26 27 27 26 26 26 26 26 26 28 29 27 27 26 24 23 21 20 21 21 22 21 22 23 22 22 22 22 23 23
25 24 23 22 21 20 19 19 22 25 25 25 26 26 26 27 27 27 26 25 25 24 25 28 30 27 26 26 25 23 20 19 20 20 19 20 22 23 23 23 23 24 23 23
22 22 20 20 21 20 20 23 25 26 27 28 27 27 27 27 28 28 26 25 26 26 28 29 30 27 26 26 26 26 24 21 20 20 22 21 21 19 20 21 22 22 22 23
22 23 22 22 22 23 24 25 26 26 27 28 28 28 28 27 28 29 26 25 25 26 27 29 29 28 27 27 26 25 24 23 22 21 22 24 22 22 22 23 23 23 24 23
21 21 21 23 23 24 25 26 27 27 28 28 27 26 27 27 28 29 28 26 27 27 30 30 30 30 30 29 28 27 26 23 22 22 22 23 24 23 22 20 22 22 23 23
23 24 24 25 24 25 26 27 27 27 27 27 27 29 29 29 29 28 26 27 29 31 31 30 30 30 30 30 30 29 27 24 24 22 21 22 24 24 22 21 22 21 23 23
26 26 25 26 26 26 25 26 27 28 29 28 29 31 30 27 24 25 27 29 30 30 30 31 30 31 31 30 28 27 27 26 24 24 23 23 24 25 23 23 20 22 22 23
25 25 26 26 26 26 27 27 29 29 28 29 29 29 28 27 25 24 27 28 29 29 29 29 31 31 30 30 29 27 26 26 26 25 25 25 26 25 23 22 21 21 21 23
27 27 27 28 28 28 28 28 28 28 28 27 27 27 26 25 27 27 28 29 28 27 26 26 26 29 30 29 30 29 28 28 27 26 26 26 26 25 24 23 22 22 23 23
28 28 28 28 29 29 28 29 29 28 27 27 27 27 26 26 28 29 27 24 22 21 23 24 24 25 26 27 29 28 29 30 30 28 27 27 26 25 24 23 22 23 23 22

GFSNGP_sfc_30mbdewp_039.txt.gz
Dewpoint
27 26 23 20 19 19 17 18 16 16 23 29 35 36 37 39 38 36 35 34 34 33 32 32 32 33 32 28 27 27 25 28 29 30 30 31 33 33 34 35 34 34 35 31
25 30 27 21 21 21 23 21 21 27 30 35 36 37 37 37 36 34 34 34 33 33 32 32 32 30 25 23 22 23 23 29 30 29 30 31 32 33 33 35 35 36 32 27
12 28 20 14 19 23 23 26 25 27 29 35 35 36 36 36 34 32 33 33 33 33 32 29 27 23 18 19 20 20 26 30 31 31 30 30 31 34 34 33 33 30 26 26
11 18 3 12 26 26 24 31 32 32 34 35 35 36 37 36 33 32 32 32 32 31 25 24 18 16 18 18 19 21 28 31 31 31 32 33 33 34 31 31 30 29 25 24
15 13 14 18 29 29 26 26 35 34 36 36 37 37 36 37 36 33 33 33 31 28 20 16 16 17 18 19 20 26 27 28 28 31 33 34 34 34 34 34 32 25 25 23
24 10 2 10 30 31 28 23 36 36 36 36 36 32 31 37 35 33 31 24 16 15 16 17 18 20 22 21 21 23 26 27 30 34 34 33 34 34 33 25 26 25 24 24
23 16 18 21 30 29 23 13 38 38 37 36 33 32 32 34 33 27 16 16 17 18 19 19 21 23 23 23 23 24 28 30 32 33 32 32 32 25 26 26 26 24 23 23
26 23 15 28 30 27 27 35 38 38 37 35 34 35 34 32 18 15 16 17 19 19 20 22 24 25 25 25 26 27 29 32 32 31 31 31 29 24 27 27 23 21 20 20
25 20 28 33 32 37 37 37 39 38 37 36 35 32 30 17 16 16 18 19 21 21 22 24 26 26 25 26 29 30 31 31 32 29 29 28 23 23 23 23 22 21 21 20
28 28 30 33 39 40 39 38 38 37 37 35 32 28 18 16 16 18 20 21 21 22 23 24 26 26 25 28 32 32 31 31 31 28 29 29 29 27 23 22 21 21 21 20
32 34 39 39 39 39 38 38 37 37 35 33 25 18 16 16 18 21 22 21 23 24 24 25 27 25 27 28 32 30 29 30 30 28 30 28 26 23 23 23 22 22 22 22
25 32 34 34 39 38 37 37 36 33 28 22 19 17 17 19 22 23 22 22 23 25 25 27 26 26 28 28 28 31 29 29 29 28 28 26 24 23 24 24 25 26 26 24
34 40 38 38 38 39 37 35 32 29 19 17 18 19 21 21 23 25 23 24 25 26 27 27 27 27 26 27 28 31 29 29 28 28 26 22 21 20 21 21 25 24 25 25
40 39 38 38 38 38 33 32 25 20 20 20 22 23 23 23 25 24 24 27 28 28 28 28 27 26 27 26 29 30 29 29 29 28 23 21 20 22 22 22 23 21 22 24
38 38 37 39 39 36 24 20 19 19 22 23 24 23 25 25 25 25 28 28 27 26 25 25 25 26 28 31 29 29 27 27 26 27 24 20 19 21 22 23 24 21 20 20
38 37 37 36 29 22 21 21 21 22 23 24 23 24 26 26 26 28 28 27 25 24 25 25 25 27 29 31 29 26 25 24 25 25 22 20 20 21 21 23 23 22 20 20
35 26 24 25 29 30 25 24 23 23 24 23 24 26 26 26 27 27 26 26 26 25 25 26 26 28 28 27 27 24 23 23 23 22 22 21 21 20 20 21 22 20 21 20
29 30 32 33 30 25 24 23 22 22 22 25 25 24 24 24 25 26 26 26 26 26 26 25 26 28 29 27 27 25 23 21 20 20 21 21 20 20 21 21 21 21 21 22
36 36 31 25 21 19 17 18 20 23 24 25 25 25 25 25 26 27 28 27 26 25 25 26 27 29 30 26 26 25 23 22 20 19 20 20 18 19 20 20 21 21 21 21
23 22 21 20 21 20 20 22 23 24 25 26 26 26 27 27 26 26 27 27 27 26 26 26 27 29 29 29 27 26 26 23 22 23 21 21 21 21 20 18 19 21 21 22
23 21 21 21 22 23 23 23 24 25 25 26 26 27 27 27 26 25 26 26 27 26 26 26 29 28 28 28 28 28 26 25 24 22 22 22 22 21 22 21 21 22 21 22
22 22 22 22 23 23 24 25 26 25 26 26 26 25 25 27 27 27 26 27 27 27 27 28 28 28 28 28 28 28 27 27 26 24 22 22 21 21 21 21 21 21 21 21
24 25 25 24 24 25 26 26 25 26 25 26 26 26 26 28 28 27 24 24 25 27 28 28 29 29 28 29 28 28 28 28 26 25 24 23 22 22 22 22 21 20 20 21
24 25 25 25 26 25 25 26 26 27 27 27 27 27 28 28 26 25 25 25 25 27 27 27 26 28 29 29 30 29 28 27 27 26 25 24 23 23 23 24 22 22 21 20
26 27 27 27 27 27 28 28 28 28 28 28 28 28 29 29 27 25 24 25 27 26 25 24 24 26 26 27 28 28 28 28 27 27 26 25 25 25 25 25 23 23 21 20
28 28 28 28 28 28 28 28 27 28 27 27 27 27 26 26 26 24 26 26 22 20 20 21 20 19 19 19 20 22 25 27 28 28 27 27 27 26 26 25 23 23 22 22
27 26 26 26 26 26 26 26 26 26 28 29 28 28 27 26 25 26 22 18 17 18 16 16 17 17 16 16 17 19 21 23 25 27 29 29 28 27 26 24 23 23 23 22

GFSNGP_sfc_30mbdewp_042.txt.gz
Dewpoint
27 26 24 19 18 20 20 19 15 15 20 23 32 35 37 38 37 35 34 33 33 32 32 32 31 29 26 24 23 24 23 26 29 30 29 29 29 30 33 34 34 35 35 35
25 29 27 22 21 20 20 19 20 21 20 33 35 37 38 38 36 34 32 32 32 32 32 29 27 25 20 19 19 22 22 28 30 30 29 29 30 31 33 34 34 35 34 32
18 25 17 14 19 20 23 24 22 20 23 35 35 36 37 36 35 33 32 32 32 32 29 27 22 20 17 19 20 21 23 27 31 30 30 31 33 33 33 31 31 30 28 27
9 14 -2 8 22 26 23 26 28 29 30 34 35 36 37 36 34 31 32 32 32 30 24 21 17 18 19 20 20 20 24 27 30 29 30 32 33 33 32 32 33 31 27 24
10 11 10 10 26 27 25 22 32 30 34 35 36 36 36 36 34 31 31 33 30 27 19 16 18 20 21 22 22 22 24 26 28 29 32 32 32 32 34 33 32 30 25 23
20 6 -3 8 28 31 27 22 31 34 34 35 36 32 33 37 35 34 33 27 17 16 17 19 20 22 23 24 24 24 25 27 29 32 32 31 31 33 32 27 25 25 24 23
20 14 15 19 30 29 21 15 34 36 36 36 34 34 33 37 34 30 18 15 17 19 19 21 23 25 25 24 24 27 29 28 31 32 31 31 31 29 25 25 27 27 23 23
24 22 13 25 30 25 26 31 34 37 37 36 34 33 34 33 23 16 16 18 19 20 20 23 25 26 24 23 26 30 31 32 32 32 32 30 28 27 26 29 25 22 20 20
25 20 26 29 31 35 35 34 37 37 37 37 35 35 32 24 16 16 18 19 21 21 22 24 26 26 24 25 28 30 31 29 29 31 31 28 24 24 25 25 24 21 21 21
27 25 29 30 34 38 39 37 38 38 37 37 35 32 24 17 16 18 20 21 21 22 23 23 26 27 26 26 29 31 28 28 28 31 28 30 29 28 26 23 21 21 21 20
30 31 35 36 38 37 39 38 38 37 37 35 30 24 20 16 18 20 22 21 22 23 24 24 27 27 27 28 27 26 29 29 29 29 28 27 27 25 26 25 23 22 22 22
22 28 30 30 37 39 38 37 37 35 32 26 27 19 17 18 21 22 22 22 23 25 26 27 27 27 28 26 25 26 27 28 28 28 27 26 24 23 23 24 24 26 27 25
31 38 37 38 38 38 38 37 35 27 26 24 19 18 20 21 23 24 23 24 26 27 27 28 27 26 26 25 26 27 28 28 28 28 27 24 21 19 20 22 24 25 24 25
39 39 38 38 38 37 35 29 24 22 21 21 22 22 22 22 25 24 24 27 28 26 26 25 24 24 26 27 28 28 28 28 28 27 27 25 22 19 21 21 21 22 22 23
38 37 38 39 32 25 22 22 22 23 25 22 23 23 23 24 25 25 27 27 27 25 25 25 25 24 25 28 29 29 27 27 26 25 26 25 21 20 19 21 22 22 22 20
36 36 31 25 22 24 26 28 30 28 23 23 23 23 25 26 26 27 27 27 25 24 25 25 25 25 27 29 29 29 27 25 25 24 23 23 22 20 20 20 20 22 20 19
29 27 30 32 33 34 33 28 24 23 24 23 22 25 25 25 26 26 26 26 25 25 25 25 24 26 27 29 28 27 26 23 23 22 21 21 20 20 20 19 19 20 20 19
34 35 36 35 32 27 24 23 21 21 21 23 25 24 24 24 24 24 26 26 26 26 26 26 25 26 26 29 29 27 27 25 23 22 20 19 20 20 19 18 19 19 20 20
36 35 35 30 24 20 17 17 19 22 24 24 24 24 25 25 25 26 26 26 26 25 25 26 26 26 27 29 29 28 25 25 24 23 22 21 20 19 18 17 18 19 19 19
23 22 21 20 21 20 20 21 23 23 24 25 25 25 25 26 25 25 25 25 26 26 27 26 26 27 27 28 28 27 27 25 24 24 22 21 22 22 21 21 20 19 17 18
21 21 21 21 21 23 23 23 23 24 24 25 25 25 25 26 25 24 25 26 27 26 26 26 27 26 27 28 28 27 27 27 26 24 24 23 22 22 22 21 21 20 20 20
23 23 22 23 23 23 24 25 25 25 25 25 25 24 24 24 25 27 25 27 27 26 25 26 28 28 28 29 29 28 28 27 26 26 25 24 23 23 22 22 21 21 20 20
24 24 24 24 24 25 26 26 26 26 25 25 25 25 24 25 26 26 27 27 24 24 25 28 26 24 24 26 27 28 28 28 28 27 26 25 25 24 23 23 22 22 21 20
26 27 27 27 27 27 27 28 28 27 27 26 26 26 26 26 27 28 28 27 24 24 25 24 22 22 21 23 23 24 25 26 27 27 27 26 26 25 24 23 23 23 22 21
28 28 27 27 26 26 26 26 26 24 25 25 25 26 27 27 28 29 27 24 24 25 20 19 18 17 17 17 17 17 17 19 21 22 25 27 26 25 25 24 24 25 23 22
26 25 25 25 24 23 22 22 21 22 23 23 24 25 27 28 29 27 25 25 24 19 16 15 15 14 14 14 13 13 13 12 11 11 14 18 23 26 26 26 26 25 23 22
21 20 19 19 19 18 17 18 19 19 20 21 22 24 26 27 26 25 24 21 18 15 13 12 14 11 10 9 9 9 9 8 8 8 10 11 11 12 13 18 20 21 21 20

GFSNGP_sfc_30mbdewp_045.txt.gz
Dewpoint
26 27 24 19 20 26 22 20 14 14 18 20 28 34 36 37 36 35 34 33 32 31 31 30 28 25 23 22 22 23 23 24 29 32 31 30 30 32 33 35 35 35 35 34
25 28 26 22 22 20 22 20 21 20 20 23 32 36 37 37 36 34 33 32 31 32 30 27 25 22 19 20 21 23 23 25 30 32 31 30 31 32 34 34 33 32 32 32
18 23 18 17 20 22 22 23 20 19 21 34 35 36 37 38 36 34 32 32 32 32 27 27 20 19 19 20 22 23 23 25 28 31 30 30 31 32 32 32 33 32 31 29
12 13 -0 10 24 23 22 24 25 27 29 34 35 37 38 38 36 34 32 32 32 29 25 20 19 20 22 23 23 23 24 24 26 29 29 31 32 31 32 33 34 31 31 27
10 9 10 7 18 23 24 16 27 27 32 35 36 37 37 37 36 33 33 33 31 24 19 18 20 22 23 23 24 23 23 26 27 29 30 31 30 30 31 32 31 31 29 25
19 6 1 5 24 32 28 19 28 32 33 35 36 33 34 37 35 32 33 31 22 17 19 21 22 24 24 23 23 23 27 29 29 31 32 30 30 29 30 26 25 26 24 24
20 16 16 18 27 29 17 11 32 34 35 36 34 35 35 37 35 34 25 16 18 20 20 21 24 25 24 23 22 26 28 29 31 32 32 32 29 28 27 27 28 29 28 24
23 22 13 24 30 24 26 29 33 36 36 36 35 34 36 34 26 18 17 19 20 20 20 23 25 26 25 24 24 28 30 29 28 26 26 30 29 25 25 30 29 26 25 25
24 19 25 26 31 34 34 32 34 36 37 37 35 34 32 24 18 17 18 20 21 20 22 23 24 26 26 26 27 28 28 28 27 26 28 29 27 27 27 26 27 27 24 22
26 25 28 29 31 35 38 37 37 38 38 37 36 33 25 18 18 19 20 21 21 21 22 23 25 27 27 27 28 27 26 27 28 27 27 28 28 27 26 25 24 23 22 22
29 29 31 32 36 36 37 39 38 38 37 36 32 23 21 22 19 20 22 21 22 23 24 24 27 27 27 28 27 24 25 25 26 28 28 27 26 24 23 24 25 24 23 24
23 28 28 30 37 38 38 38 37 34 29 28 28 28 24 21 21 22 23 22 23 25 26 26 27 27 26 26 24 24 26 26 27 28 28 27 25 23 24 26 24 24 25 27
32 38 36 38 38 38 38 37 31 28 27 24 22 22 22 21 23 24 23 24 26 26 26 26 25 24 24 26 27 27 26 28 27 27 27 27 26 23 21 21 23 24 25 26
39 38 37 38 38 34 29 26 25 24 25 30 31 24 22 22 25 24 23 26 27 26 25 25 25 25 25 25 26 28 29 28 27 27 27 26 25 26 23 21 20 21 23 24
37 38 36 29 25 23 24 27 31 33 33 26 23 23 23 23 23 24 25 27 27 26 25 25 25 25 26 27 27 28 29 28 28 27 27 26 26 25 23 22 21 21 22 23
28 26 25 27 30 33 34 35 34 32 29 24 23 23 23 25 25 26 27 28 26 25 25 25 25 26 27 27 27 29 28 28 28 27 26 24 23 23 22 21 21 20 20 21
30 30 32 33 35 34 32 32 30 25 24 24 23 23 25 25 25 25 26 27 27 26 26 26 27 27 27 27 27 28 28 28 27 25 25 24 24 22 22 22 22 21 21 24
34 35 36 35 31 30 25 24 22 21 19 21 24 24 24 24 24 25 25 25 26 26 27 27 27 26 26 27 28 29 29 29 28 27 26 25 25 24 22 22 22 21 21 22
35 34 33 29 27 22 18 18 19 21 23 24 24 24 24 24 25 26 26 25 26 26 27 27 27 27 27 28 28 29 28 26 25 25 26 26 25 25 24 24 23 22 22 22
24 23 21 21 22 22 21 23 23 24 24 25 24 24 24 25 25 25 24 25 27 28 28 27 26 27 27 26 28 27 26 26 26 26 26 25 25 25 25 25 24 25 24 24
21 21 21 22 23 23 23 24 24 24 25 25 24 24 24 25 25 24 24 25 27 27 27 26 26 26 27 27 27 28 27 27 27 27 27 26 26 25 25 25 25 25 25 24
24 23 23 24 24 25 26 27 27 25 25 24 24 24 24 24 25 25 25 27 28 28 27 25 27 26 26 26 24 26 25 26 27 27 27 27 27 26 26 26 25 25 25 25
25 26 27 27 26 26 26 26 25 25 24 24 24 25 25 25 26 26 26 29 27 28 25 26 28 26 22 23 23 23 22 22 23 25 26 27 26 26 26 26 26 26 25 25
28 27 26 26 25 22 20 20 21 22 23 23 24 24 25 23 24 26 29 29 28 27 26 26 23 19 17 19 18 18 18 18 18 19 19 20 22 25 26 25 25 26 26 25
25 23 23 21 19 18 17 16 17 18 18 18 19 20 21 23 24 26 27 28 28 25 25 19 17 15 16 16 15 14 14 13 12 12 13 13 14 15 16 20 26 26 27 27
19 18 19 19 16 14 14 13 13 15 16 15 16 18 20 20 23 25 28 27 25 22 19 16 15 14 12 11 11 10 10 9 9 9 9 10 10 11 12 13 14 16 21 24
16 16 14 12 12 11 10 9 10 10 12 13 13 14 15 18 20 21 24 23 19 16 14 13 12 10 10 9 8 7 7 6 5 5 6 6 7 8 8 9 11 12 12 13